| time (UTC) | temp C | wind direction | speed KPH | gust KPH | rain 1hr cm | rain 24hr cm | rain mn cm | humidity % | barometer mb |
| 20260509195151 | 19 | 323 | 19.3 | 30.6 | 0.00 | 0.00 | 0.00 | 69 | 1014.6 |
| 20260509194651 | 19 | 320 | 16.1 | 29.0 | 0.00 | 0.00 | 0.00 | 69 | 1014.6 |
| 20260509194150 | 19 | 308 | 16.1 | 27.4 | 0.00 | 0.00 | 0.00 | 70 | 1014.6 |
| 20260509193650 | 19 | 327 | 17.7 | 27.4 | 0.00 | 0.00 | 0.00 | 69 | 1014.7 |
| 20260509193150 | 19 | 326 | 12.9 | 24.1 | 0.00 | 0.00 | 0.00 | 70 | 1014.8 |
| 20260509192650 | 18 | 327 | 11.3 | 24.1 | 0.00 | 0.00 | 0.00 | 72 | 1014.8 |
| 20260509192150 | 18 | 330 | 11.3 | 24.1 | 0.00 | 0.00 | 0.00 | 71 | 1015.0 |
| 20260509191651 | 18 | 329 | 12.9 | 27.4 | 0.00 | 0.00 | 0.00 | 70 | 1015.1 |
| 20260509191153 | 18 | 333 | 12.9 | 27.4 | 0.00 | 0.00 | 0.00 | 71 | 1015.0 |
| 20260509190650 | 18 | 324 | 11.3 | 27.4 | 0.00 | 0.00 | 0.00 | 73 | 1015.1 |
| 20260509185650 | 18 | 333 | 14.5 | 29.0 | 0.00 | 0.00 | 0.00 | 72 | 1015.2 |
| 20260509185151 | 18 | 338 | 16.1 | 29.0 | 0.00 | 0.00 | 0.00 | 72 | 1015.3 |
| 20260509184649 | 18 | 322 | 16.1 | 29.0 | 0.00 | 0.00 | 0.00 | 72 | 1015.4 |
| 20260509184151 | 17 | 323 | 14.5 | 25.7 | 0.00 | 0.00 | 0.00 | 72 | 1015.4 |
| 20260509183649 | 17 | 323 | 17.7 | 22.5 | 0.00 | 0.00 | 0.00 | 73 | 1015.4 |
| 20260509183150 | 17 | 333 | 14.5 | 29.0 | 0.00 | 0.00 | 0.00 | 74 | 1015.4 |
| 20260509182650 | 17 | 324 | 17.7 | 29.0 | 0.00 | 0.00 | 0.00 | 74 | 1015.5 |
| 20260509182150 | 17 | 317 | 17.7 | 29.0 | 0.00 | 0.00 | 0.00 | 75 | 1015.5 |
| 20260509181650 | 17 | 320 | 17.7 | 29.0 | 0.00 | 0.00 | 0.00 | 74 | 1015.5 |
| 20260509180649 | 17 | 331 | 19.3 | 29.0 | 0.00 | 0.00 | 0.00 | 75 | 1015.6 |
| 20260509180149 | 17 | 334 | 17.7 | 25.7 | 0.00 | 0.00 | 0.00 | 75 | 1015.5 |
| 20260509175650 | 17 | 310 | 17.7 | 20.9 | 0.00 | 0.00 | 0.00 | 75 | 1015.5 |
| 20260509175149 | 17 | 305 | 12.9 | 20.9 | 0.00 | 0.00 | 0.00 | 76 | 1015.5 |
| 20260509174649 | 17 | 316 | 12.9 | 20.9 | 0.00 | 0.00 | 0.00 | 76 | 1015.4 |
| 20260509174150 | 17 | 296 | 9.7 | 17.7 | 0.00 | 0.00 | 0.00 | 77 | 1015.4 |
| 20260509173650 | 17 | 322 | 9.7 | 17.7 | 0.00 | 0.00 | 0.00 | 76 | 1015.6 |
| 20260509173151 | 17 | 334 | 12.9 | 16.1 | 0.00 | 0.00 | 0.00 | 76 | 1015.6 |
| 20260509172652 | 17 | 298 | 8.0 | 16.1 | 0.00 | 0.00 | 0.00 | 77 | 1015.8 |
| 20260509172149 | 17 | 277 | 9.7 | 14.5 | 0.00 | 0.00 | 0.00 | 76 | 1015.8 |
| 20260509171650 | 17 | 282 | 8.0 | 11.3 | 0.00 | 0.00 | 0.00 | 78 | 1015.6 |
| 20260509171152 | 17 | 292 | 4.8 | 11.3 | 0.00 | 0.00 | 0.00 | 78 | 1015.5 |
| 20260509170649 | 16 | 291 | 3.2 | 11.3 | 0.00 | 0.00 | 0.00 | 78 | 1015.6 |
| 20260509170149 | 16 | 292 | 4.8 | 9.7 | 0.00 | 0.00 | 0.00 | 79 | 1015.6 |
| 20260509165650 | 16 | 285 | 6.4 | 9.7 | 0.00 | 0.00 | 0.00 | 80 | 1015.6 |
| 20260509165149 | 16 | 289 | 4.8 | 9.7 | 0.00 | 0.00 | 0.00 | 80 | 1015.7 |
| 20260509164649 | 15 | 292 | 4.8 | 9.7 | 0.00 | 0.00 | 0.00 | 80 | 1015.7 |
| 20260509164153 | 15 | 299 | 6.4 | 9.7 | 0.00 | 0.00 | 0.00 | 81 | 1015.7 |
| 20260509163649 | 15 | 299 | 6.4 | 9.7 | 0.00 | 0.00 | 0.00 | 80 | 1015.8 |
| 20260509163149 | 15 | 305 | 8.0 | 9.7 | 0.00 | 0.00 | 0.00 | 81 | 1015.8 |
| 20260509162650 | 15 | 305 | 1.6 | 9.7 | 0.00 | 0.00 | 0.00 | 81 | 1015.7 |
| 20260509162150 | 15 | 305 | 6.4 | 8.0 | 0.00 | 0.00 | 0.00 | 82 | 1015.7 |
| 20260509161650 | 14 | 313 | 3.2 | 6.4 | 0.00 | 0.00 | 0.00 | 83 | 1015.7 |
| 20260509161150 | 14 | 296 | 4.8 | 4.8 | 0.00 | 0.00 | 0.00 | 84 | 1015.7 |
| 20260509160149 | 13 | 289 | 0.0 | 4.8 | 0.00 | 0.00 | 0.00 | 85 | 1015.7 |
| 20260509155650 | 13 | 277 | 1.6 | 1.6 | 0.00 | 0.00 | 0.00 | 85 | 1015.6 |
| 20260509155149 | 13 | 0 | 0.0 | 0.0 | 0.00 | 0.00 | 0.00 | 86 | 1015.6 |
| 20260509153649 | 12 | 296 | 0.0 | 1.6 | 0.00 | 0.00 | 0.00 | 86 | 1015.8 |
| 20260509153149 | 12 | 0 | 0.0 | 0.0 | 0.00 | 0.00 | 0.00 | 87 | 1015.8 |
| 20260509152650 | 12 | 0 | 0.0 | 3.2 | 0.00 | 0.00 | 0.00 | 87 | 1015.9 |
| 20260509152153 | 12 | 296 | 0.0 | 3.2 | 0.00 | 0.00 | 0.00 | 87 | 1016.0 |
| 20260509151650 | 12 | 306 | 0.0 | 3.2 | 0.00 | 0.00 | 0.00 | 87 | 1015.9 |
| 20260509150650 | 11 | 0 | 0.0 | 0.0 | 0.00 | 0.00 | 0.00 | 87 | 1015.9 |
| 20260509150150 | 11 | 0 | 0.0 | 0.0 | 0.00 | 0.00 | 0.00 | 87 | 1015.9 |
| 20260509145150 | 11 | 0 | 0.0 | 4.8 | 0.00 | 0.00 | 0.00 | 87 | 1016.0 |
| 20260509144650 | 11 | 67 | 0.0 | 4.8 | 0.00 | 0.00 | 0.00 | 87 | 1016.1 |
| 20260509144153 | 11 | 0 | 0.0 | 3.2 | 0.00 | 0.00 | 0.00 | 87 | 1016.0 |
| 20260509143650 | 10 | 334 | 0.0 | 3.2 | 0.00 | 0.00 | 0.00 | 87 | 1016.2 |
| 20260509143150 | 10 | 319 | 0.0 | 3.2 | 0.00 | 0.00 | 0.00 | 87 | 1016.5 |
| 20260509142651 | 10 | 113 | 0.0 | 6.4 | 0.00 | 0.00 | 0.00 | 86 | 1016.5 |
| 20260509142150 | 10 | 105 | 0.0 | 6.4 | 0.00 | 0.00 | 0.00 | 86 | 1016.3 |
| 20260509141650 | 10 | 105 | 1.6 | 6.4 | 0.00 | 0.00 | 0.00 | 87 | 1016.1 |
| 20260509141152 | 10 | 121 | 3.2 | 4.8 | 0.00 | 0.00 | 0.00 | 87 | 1016.2 |
| 20260509140651 | 10 | 0 | 0.0 | 0.0 | 0.00 | 0.00 | 0.00 | 86 | 1016.2 |
| 20260509140150 | 10 | 4 | 0.0 | 3.2 | 0.00 | 0.00 | 0.00 | 86 | 1016.3 |
| 20260509135651 | 10 | 127 | 0.0 | 3.2 | 0.00 | 0.00 | 0.00 | 86 | 1016.3 |
| 20260509135150 | 9 | 106 | 0.0 | 3.2 | 0.00 | 0.00 | 0.00 | 86 | 1016.3 |
| 20260509134650 | 9 | 81 | 0.0 | 4.8 | 0.00 | 0.00 | 0.00 | 86 | 1016.1 |
| 20260509134152 | 9 | 110 | 1.6 | 4.8 | 0.00 | 0.00 | 0.00 | 86 | 1016.0 |
| 20260509133650 | 9 | 105 | 1.6 | 4.8 | 0.00 | 0.00 | 0.00 | 86 | 1016.0 |
| 20260509133150 | 9 | 99 | 3.2 | 4.8 | 0.00 | 0.00 | 0.00 | 86 | 1016.1 |
| 20260509132651 | 9 | 105 | 3.2 | 4.8 | 0.00 | 0.00 | 0.00 | 86 | 1016.2 |
| 20260509132150 | 9 | 93 | 3.2 | 3.2 | 0.00 | 0.00 | 0.00 | 86 | 1016.2 |
| 20260509131650 | 9 | 92 | 1.6 | 8.0 | 0.00 | 0.00 | 0.00 | 86 | 1016.2 |
| 20260509131153 | 9 | 112 | 3.2 | 8.0 | 0.00 | 0.00 | 0.00 | 86 | 1016.2 |
| 20260509130650 | 9 | 100 | 3.2 | 8.0 | 0.00 | 0.00 | 0.00 | 86 | 1016.1 |
| 20260509130150 | 9 | 112 | 6.4 | 6.4 | 0.00 | 0.00 | 0.00 | 86 | 1016.2 |
| 20260509125651 | 9 | 105 | 4.8 | 6.4 | 0.00 | 0.00 | 0.00 | 86 | 1016.2 |
| 20260509125150 | 8 | 96 | 3.2 | 3.2 | 0.00 | 0.00 | 0.00 | 86 | 1016.3 |
| 20260509124650 | 9 | 86 | 1.6 | 6.4 | 0.00 | 0.00 | 0.00 | 86 | 1016.4 |
| 20260509124152 | 9 | 86 | 1.6 | 6.4 | 0.00 | 0.00 | 0.00 | 85 | 1016.4 |
| 20260509123650 | 8 | 99 | 1.6 | 6.4 | 0.00 | 0.00 | 0.00 | 85 | 1016.4 |
| 20260509123150 | 9 | 105 | 3.2 | 8.0 | 0.00 | 0.00 | 0.00 | 85 | 1016.4 |
| 20260509122651 | 8 | 105 | 4.8 | 8.0 | 0.00 | 0.00 | 0.00 | 86 | 1016.4 |
| 20260509122150 | 9 | 107 | 4.8 | 8.0 | 0.00 | 0.00 | 0.00 | 85 | 1016.5 |
| 20260509121651 | 8 | 109 | 3.2 | 8.0 | 0.00 | 0.00 | 0.00 | 85 | 1016.6 |
| 20260509121152 | 8 | 106 | 4.8 | 8.0 | 0.00 | 0.00 | 0.00 | 85 | 1016.6 |
| 20260509120650 | 9 | 99 | 4.8 | 8.0 | 0.00 | 0.00 | 0.00 | 85 | 1016.7 |
| 20260509120150 | 9 | 103 | 6.4 | 8.0 | 0.00 | 0.00 | 0.00 | 85 | 1016.7 |
| 20260509115651 | 9 | 114 | 6.4 | 8.0 | 0.00 | 0.00 | 0.00 | 85 | 1016.7 |
| 20260509115150 | 9 | 110 | 6.4 | 6.4 | 0.00 | 0.00 | 0.00 | 85 | 1016.7 |
| 20260509114651 | 9 | 99 | 6.4 | 6.4 | 0.00 | 0.00 | 0.00 | 85 | 1016.8 |
| 20260509113650 | 9 | 103 | 1.6 | 6.4 | 0.00 | 0.00 | 0.00 | 85 | 1017.1 |
| 20260509113150 | 9 | 100 | 3.2 | 6.4 | 0.00 | 0.00 | 0.00 | 85 | 1017.1 |
| 20260509112651 | 10 | 109 | 4.8 | 6.4 | 0.00 | 0.00 | 0.00 | 85 | 1017.1 |
| 20260509112150 | 9 | 102 | 3.2 | 4.8 | 0.00 | 0.00 | 0.00 | 85 | 1017.0 |
| 20260509111650 | 10 | 91 | 3.2 | 4.8 | 0.00 | 0.00 | 0.00 | 85 | 1016.9 |
| 20260509111152 | 10 | 100 | 3.2 | 4.8 | 0.00 | 0.00 | 0.00 | 85 | 1016.9 |
| 20260509110651 | 10 | 60 | 3.2 | 8.0 | 0.00 | 0.00 | 0.00 | 85 | 1016.9 |
| 20260509110150 | 9 | 91 | 3.2 | 8.0 | 0.00 | 0.00 | 0.00 | 85 | 1016.9 |
| 20260509105150 | 9 | 113 | 3.2 | 8.0 | 0.00 | 0.00 | 0.00 | 85 | 1017.0 |
| 20260509104650 | 9 | 102 | 4.8 | 8.0 | 0.00 | 0.00 | 0.00 | 85 | 1016.9 |
| 20260509104152 | 9 | 98 | 6.4 | 8.0 | 0.00 | 0.00 | 0.00 | 85 | 1016.9 |
| 20260509103650 | 9 | 102 | 4.8 | 6.4 | 0.00 | 0.00 | 0.00 | 84 | 1016.9 |
| 20260509103150 | 9 | 105 | 1.6 | 6.4 | 0.00 | 0.00 | 0.00 | 84 | 1017.1 |
| 20260509102651 | 9 | 112 | 4.8 | 6.4 | 0.00 | 0.00 | 0.00 | 84 | 1017.1 |
| 20260509102150 | 9 | 96 | 4.8 | 9.7 | 0.00 | 0.00 | 0.00 | 84 | 1017.1 |
| 20260509101650 | 9 | 109 | 4.8 | 9.7 | 0.00 | 0.00 | 0.00 | 84 | 1017.2 |
| 20260509101152 | 10 | 95 | 6.4 | 9.7 | 0.00 | 0.00 | 0.00 | 84 | 1017.2 |
| 20260509100650 | 10 | 103 | 6.4 | 9.7 | 0.00 | 0.00 | 0.00 | 84 | 1017.3 |
| 20260509100150 | 10 | 113 | 6.4 | 9.7 | 0.00 | 0.00 | 0.00 | 84 | 1017.4 |
| 20260509095651 | 10 | 113 | 6.4 | 8.0 | 0.00 | 0.00 | 0.00 | 84 | 1017.4 |
| 20260509095150 | 10 | 103 | 6.4 | 8.0 | 0.00 | 0.00 | 0.00 | 84 | 1017.5 |
| 20260509094650 | 10 | 102 | 6.4 | 8.0 | 0.00 | 0.00 | 0.00 | 84 | 1017.5 |
| 20260509094152 | 10 | 98 | 4.8 | 8.0 | 0.00 | 0.00 | 0.00 | 84 | 1017.5 |
| 20260509093650 | 10 | 99 | 6.4 | 8.0 | 0.00 | 0.00 | 0.00 | 84 | 1017.5 |
| 20260509093150 | 10 | 100 | 6.4 | 8.0 | 0.00 | 0.00 | 0.00 | 84 | 1017.5 |
| 20260509092651 | 10 | 99 | 6.4 | 8.0 | 0.00 | 0.00 | 0.00 | 83 | 1017.5 |
| 20260509092152 | 10 | 106 | 6.4 | 8.0 | 0.00 | 0.00 | 0.00 | 83 | 1017.5 |
| 20260509091650 | 10 | 102 | 4.8 | 8.0 | 0.00 | 0.00 | 0.00 | 83 | 1017.6 |
| 20260509091152 | 10 | 110 | 4.8 | 8.0 | 0.00 | 0.00 | 0.00 | 83 | 1017.6 |
| 20260509090650 | 10 | 159 | 4.8 | 8.0 | 0.00 | 0.00 | 0.00 | 83 | 1017.6 |
| 20260509090150 | 10 | 110 | 4.8 | 8.0 | 0.00 | 0.00 | 0.00 | 83 | 1017.6 |
| 20260509085651 | 10 | 112 | 3.2 | 8.0 | 0.00 | 0.00 | 0.00 | 83 | 1017.5 |
| 20260509085150 | 10 | 134 | 3.2 | 8.0 | 0.00 | 0.00 | 0.00 | 83 | 1017.6 |
| 20260509084650 | 10 | 105 | 3.2 | 8.0 | 0.00 | 0.00 | 0.00 | 83 | 1017.7 |
| 20260509084153 | 10 | 113 | 4.8 | 8.0 | 0.00 | 0.00 | 0.00 | 83 | 1017.7 |
| 20260509083650 | 10 | 95 | 3.2 | 6.4 | 0.00 | 0.00 | 0.00 | 83 | 1017.8 |
| 20260509083150 | 10 | 103 | 4.8 | 6.4 | 0.00 | 0.00 | 0.00 | 83 | 1017.8 |
| 20260509082651 | 10 | 106 | 3.2 | 6.4 | 0.00 | 0.00 | 0.00 | 82 | 1018.0 |
| 20260509082152 | 10 | 110 | 4.8 | 6.4 | 0.00 | 0.00 | 0.00 | 82 | 1018.0 |
| 20260509081650 | 10 | 106 | 3.2 | 6.4 | 0.00 | 0.00 | 0.00 | 82 | 1018.0 |
| 20260509081152 | 10 | 99 | 3.2 | 6.4 | 0.00 | 0.00 | 0.00 | 82 | 1018.0 |
| 20260509080650 | 10 | 123 | 1.6 | 6.4 | 0.00 | 0.00 | 0.00 | 82 | 1018.0 |
| 20260509080150 | 10 | 177 | 3.2 | 6.4 | 0.00 | 0.00 | 0.00 | 82 | 1017.9 |
| 20260509075651 | 10 | 114 | 1.6 | 6.4 | 0.00 | 0.00 | 0.00 | 82 | 1018.0 |
| 20260509075150 | 10 | 93 | 0.0 | 6.4 | 0.00 | 0.00 | 0.00 | 82 | 1018.0 |
| 20260509074650 | 10 | 107 | 1.6 | 4.8 | 0.00 | 0.00 | 0.00 | 82 | 1017.9 |
| 20260509074152 | 10 | 114 | 1.6 | 4.8 | 0.00 | 0.00 | 0.00 | 82 | 1017.9 |
| 20260509073650 | 10 | 123 | 1.6 | 4.8 | 0.00 | 0.00 | 0.00 | 82 | 1018.0 |
| 20260509073150 | 10 | 98 | 1.6 | 4.8 | 0.00 | 0.00 | 0.00 | 82 | 1018.0 |
| 20260509072653 | 10 | 100 | 1.6 | 4.8 | 0.00 | 0.00 | 0.00 | 82 | 1018.0 |
| 20260509072150 | 10 | 100 | 1.6 | 4.8 | 0.00 | 0.00 | 0.00 | 82 | 1018.1 |
| 20260509071650 | 10 | 96 | 1.6 | 6.4 | 0.00 | 0.00 | 0.00 | 82 | 1018.2 |
| 20260509071152 | 10 | 116 | 3.2 | 6.4 | 0.00 | 0.00 | 0.00 | 82 | 1018.2 |
| 20260509070650 | 10 | 106 | 1.6 | 6.4 | 0.00 | 0.00 | 0.00 | 82 | 1018.2 |
| 20260509070150 | 10 | 107 | 1.6 | 9.7 | 0.00 | 0.00 | 0.00 | 82 | 1018.1 |
| 20260509065651 | 10 | 107 | 4.8 | 9.7 | 0.00 | 0.00 | 0.00 | 81 | 1018.3 |
| 20260509065150 | 10 | 168 | 1.6 | 9.7 | 0.00 | 0.00 | 0.00 | 81 | 1018.4 |
| 20260509064651 | 10 | 100 | 4.8 | 8.0 | 0.00 | 0.00 | 0.00 | 81 | 1018.4 |
| 20260509064152 | 10 | 103 | 3.2 | 8.0 | 0.00 | 0.00 | 0.00 | 81 | 1018.5 |
| 20260509063650 | 10 | 93 | 4.8 | 8.0 | 0.00 | 0.00 | 0.00 | 81 | 1018.5 |
| 20260509063150 | 10 | 96 | 4.8 | 8.0 | 0.00 | 0.00 | 0.00 | 81 | 1018.5 |
| 20260509062651 | 10 | 103 | 4.8 | 8.0 | 0.00 | 0.00 | 0.00 | 81 | 1018.5 |
| 20260509062150 | 11 | 100 | 4.8 | 8.0 | 0.00 | 0.00 | 0.00 | 81 | 1018.6 |
| 20260509061650 | 11 | 100 | 4.8 | 8.0 | 0.00 | 0.00 | 0.00 | 81 | 1018.6 |
| 20260509061152 | 11 | 109 | 4.8 | 8.0 | 0.00 | 0.00 | 0.00 | 81 | 1018.7 |
| 20260509060650 | 11 | 110 | 4.8 | 6.4 | 0.00 | 0.00 | 0.00 | 81 | 1018.7 |
| 20260509060150 | 11 | 116 | 4.8 | 8.0 | 0.00 | 0.00 | 0.00 | 80 | 1018.8 |
| 20260509055651 | 11 | 100 | 4.8 | 8.0 | 0.00 | 0.00 | 0.00 | 80 | 1018.7 |
| 20260509055150 | 11 | 105 | 4.8 | 8.0 | 0.00 | 0.00 | 0.00 | 80 | 1018.7 |
| 20260509054651 | 11 | 106 | 4.8 | 6.4 | 0.00 | 0.00 | 0.00 | 80 | 1018.7 |
| 20260509054152 | 11 | 107 | 4.8 | 9.7 | 0.00 | 0.00 | 0.00 | 80 | 1018.7 |
| 20260509053649 | 11 | 105 | 3.2 | 9.7 | 0.00 | 0.00 | 0.00 | 80 | 1018.7 |
| 20260509053150 | 11 | 105 | 4.8 | 9.7 | 0.00 | 0.00 | 0.00 | 80 | 1018.7 |
| 20260509052150 | 11 | 98 | 4.8 | 8.0 | 0.00 | 0.00 | 0.00 | 79 | 1018.9 |
| 20260509051650 | 11 | 106 | 6.4 | 6.4 | 0.00 | 0.00 | 0.00 | 79 | 1018.8 |
| 20260509051152 | 11 | 116 | 6.4 | 8.0 | 0.00 | 0.00 | 0.00 | 79 | 1018.8 |
| 20260509050650 | 11 | 100 | 4.8 | 8.0 | 0.00 | 0.00 | 0.00 | 79 | 1018.8 |
| 20260509050150 | 12 | 119 | 4.8 | 8.0 | 0.00 | 0.00 | 0.00 | 79 | 1018.8 |
| 20260509045150 | 12 | 114 | 3.2 | 8.0 | 0.00 | 0.00 | 0.00 | 78 | 1018.8 |
| 20260509044650 | 12 | 114 | 4.8 | 8.0 | 0.00 | 0.00 | 0.00 | 78 | 1018.8 |
| 20260509044152 | 12 | 102 | 3.2 | 8.0 | 0.00 | 0.00 | 0.00 | 78 | 1018.8 |
| 20260509043650 | 12 | 106 | 6.4 | 6.4 | 0.00 | 0.00 | 0.00 | 78 | 1018.7 |
| 20260509043150 | 12 | 106 | 6.4 | 6.4 | 0.00 | 0.00 | 0.00 | 78 | 1018.7 |
| 20260509042651 | 12 | 309 | 1.6 | 4.8 | 0.00 | 0.00 | 0.00 | 77 | 1018.6 |
| 20260509042150 | 12 | 319 | 0.0 | 4.8 | 0.00 | 0.00 | 0.00 | 77 | 1018.6 |
| 20260509041650 | 12 | 327 | 0.0 | 4.8 | 0.00 | 0.00 | 0.00 | 77 | 1018.6 |
| 20260509041152 | 12 | 343 | 0.0 | 6.4 | 0.00 | 0.00 | 0.00 | 77 | 1018.6 |
| 20260509040649 | 12 | 91 | 1.6 | 6.4 | 0.00 | 0.00 | 0.00 | 77 | 1018.5 |
| 20260509040150 | 13 | 357 | 0.0 | 6.4 | 0.00 | 0.00 | 0.00 | 76 | 1018.6 |
| 20260509035150 | 13 | 357 | 0.0 | 9.7 | 0.00 | 0.00 | 0.00 | 76 | 1018.5 |
| 20260509034650 | 13 | 340 | 1.6 | 9.7 | 0.00 | 0.00 | 0.00 | 76 | 1018.5 |
| 20260509033649 | 13 | 317 | 3.2 | 9.7 | 0.00 | 0.00 | 0.00 | 76 | 1018.4 |
| 20260509033149 | 13 | 326 | 4.8 | 9.7 | 0.00 | 0.00 | 0.00 | 75 | 1018.4 |
| 20260509032654 | 13 | 340 | 4.8 | 9.7 | 0.00 | 0.00 | 0.00 | 75 | 1018.4 |
| 20260509032150 | 14 | 336 | 6.4 | 9.7 | 0.00 | 0.00 | 0.00 | 75 | 1018.4 |
| 20260509031649 | 14 | 309 | 6.4 | 9.7 | 0.00 | 0.00 | 0.00 | 75 | 1018.4 |
| 20260509031152 | 14 | 327 | 3.2 | 9.7 | 0.00 | 0.00 | 0.00 | 75 | 1018.4 |
| 20260509030650 | 14 | 334 | 6.4 | 12.9 | 0.00 | 0.00 | 0.00 | 74 | 1018.4 |
| 20260509030150 | 14 | 319 | 8.0 | 12.9 | 0.00 | 0.00 | 0.00 | 74 | 1018.4 |
| 20260509025651 | 14 | 334 | 4.8 | 12.9 | 0.00 | 0.00 | 0.00 | 74 | 1018.4 |
| 20260509025149 | 14 | 330 | 8.0 | 11.3 | 0.00 | 0.00 | 0.00 | 74 | 1018.4 |
| 20260509024650 | 15 | 337 | 6.4 | 9.7 | 0.00 | 0.00 | 0.00 | 74 | 1018.5 |
| 20260509024152 | 15 | 310 | 4.8 | 11.3 | 0.00 | 0.00 | 0.00 | 74 | 1018.6 |
| 20260509023650 | 15 | 316 | 6.4 | 11.3 | 0.00 | 0.00 | 0.00 | 74 | 1018.6 |
| 20260509023150 | 15 | 299 | 6.4 | 11.3 | 0.00 | 0.00 | 0.00 | 74 | 1018.6 |
| 20260509022651 | 15 | 322 | 8.0 | 12.9 | 0.00 | 0.00 | 0.00 | 73 | 1018.6 |
| 20260509022150 | 15 | 309 | 8.0 | 12.9 | 0.00 | 0.00 | 0.00 | 73 | 1018.7 |
| 20260509021650 | 15 | 301 | 6.4 | 12.9 | 0.00 | 0.00 | 0.00 | 73 | 1018.7 |
| 20260509021150 | 15 | 284 | 6.4 | 12.9 | 0.00 | 0.00 | 0.00 | 73 | 1018.7 |
| 20260509020650 | 15 | 294 | 9.7 | 11.3 | 0.00 | 0.00 | 0.00 | 73 | 1018.7 |
| 20260509020150 | 15 | 292 | 6.4 | 11.3 | 0.00 | 0.00 | 0.00 | 73 | 1018.7 |
| 20260509015150 | 15 | 295 | 4.8 | 12.9 | 0.00 | 0.00 | 0.00 | 72 | 1018.6 |
| 20260509014649 | 15 | 310 | 6.4 | 12.9 | 0.00 | 0.00 | 0.00 | 73 | 1018.7 |
| 20260509013649 | 15 | 299 | 8.0 | 11.3 | 0.00 | 0.00 | 0.00 | 72 | 1018.6 |
| 20260509013150 | 15 | 303 | 6.4 | 11.3 | 0.00 | 0.00 | 0.00 | 72 | 1018.7 |
| 20260509012651 | 15 | 291 | 8.0 | 11.3 | 0.00 | 0.00 | 0.00 | 72 | 1018.6 |
| 20260509012149 | 15 | 291 | 9.7 | 11.3 | 0.00 | 0.00 | 0.00 | 72 | 1018.7 |
| 20260509011649 | 15 | 320 | 6.4 | 11.3 | 0.00 | 0.00 | 0.00 | 72 | 1018.7 |
| 20260509011150 | 15 | 273 | 6.4 | 11.3 | 0.00 | 0.00 | 0.00 | 72 | 1018.8 |
| 20260509010650 | 15 | 292 | 6.4 | 11.3 | 0.00 | 0.00 | 0.00 | 72 | 1018.8 |
| 20260509010150 | 15 | 277 | 4.8 | 9.7 | 0.00 | 0.00 | 0.00 | 71 | 1018.8 |
| 20260509005649 | 15 | 296 | 6.4 | 9.7 | 0.00 | 0.00 | 0.00 | 71 | 1018.9 |
| 20260509005149 | 15 | 292 | 8.0 | 9.7 | 0.00 | 0.00 | 0.00 | 71 | 1018.8 |
| 20260509004650 | 15 | 324 | 4.8 | 9.7 | 0.00 | 0.00 | 0.00 | 71 | 1018.9 |
| 20260509004150 | 15 | 302 | 3.2 | 9.7 | 0.00 | 0.00 | 0.00 | 71 | 1019.0 |
| 20260509003652 | 15 | 289 | 4.8 | 12.9 | 0.00 | 0.00 | 0.00 | 70 | 1019.0 |
| 20260509003150 | 15 | 294 | 6.4 | 12.9 | 0.00 | 0.00 | 0.00 | 70 | 1019.1 |
| 20260509002649 | 15 | 282 | 6.4 | 12.9 | 0.00 | 0.00 | 0.00 | 70 | 1019.1 |
| 20260509002150 | 15 | 298 | 8.0 | 11.3 | 0.00 | 0.00 | 0.00 | 70 | 1019.0 |
| 20260509001650 | 16 | 299 | 8.0 | 12.9 | 0.00 | 0.00 | 0.00 | 70 | 1019.0 |
| 20260509001152 | 16 | 291 | 4.8 | 12.9 | 0.00 | 0.00 | 0.00 | 70 | 1019.1 |
| 20260509000650 | 16 | 299 | 8.0 | 12.9 | 0.00 | 0.00 | 0.00 | 70 | 1019.1 |
| 20260509000150 | 15 | 236 | 4.8 | 9.7 | 0.00 | 0.00 | 0.00 | 70 | 1019.2 |
| 20260508235150 | 16 | 288 | 4.8 | 12.9 | 0.00 | 0.00 | 0.00 | 69 | 1019.2 |
| 20260508234650 | 16 | 282 | 6.4 | 12.9 | 0.00 | 0.00 | 0.00 | 69 | 1019.2 |
| 20260508234152 | 16 | 305 | 8.0 | 11.3 | 0.00 | 0.00 | 0.00 | 69 | 1019.2 |
| 20260508233649 | 16 | 302 | 6.4 | 11.3 | 0.00 | 0.00 | 0.00 | 69 | 1019.2 |
| 20260508233150 | 16 | 292 | 6.4 | 11.3 | 0.00 | 0.00 | 0.00 | 69 | 1019.2 |
| 20260508232651 | 16 | 301 | 9.7 | 11.3 | 0.00 | 0.00 | 0.00 | 68 | 1019.3 |
| 20260508232150 | 16 | 263 | 8.0 | 11.3 | 0.00 | 0.00 | 0.00 | 68 | 1019.3 |
| 20260508231650 | 16 | 242 | 6.4 | 11.3 | 0.00 | 0.00 | 0.00 | 68 | 1019.3 |
| 20260508231152 | 16 | 264 | 6.4 | 11.3 | 0.00 | 0.00 | 0.00 | 69 | 1019.3 |
| 20260508230650 | 16 | 274 | 4.8 | 11.3 | 0.00 | 0.00 | 0.00 | 69 | 1019.4 |
| 20260508230150 | 16 | 264 | 6.4 | 11.3 | 0.00 | 0.00 | 0.00 | 69 | 1019.4 |
| 20260508225651 | 16 | 274 | 6.4 | 12.9 | 0.00 | 0.00 | 0.00 | 69 | 1019.4 |
| 20260508225150 | 16 | 267 | 8.0 | 12.9 | 0.00 | 0.00 | 0.00 | 69 | 1019.4 |
| 20260508224650 | 16 | 270 | 6.4 | 12.9 | 0.00 | 0.00 | 0.00 | 68 | 1019.3 |
| 20260508224152 | 16 | 235 | 6.4 | 12.9 | 0.00 | 0.00 | 0.00 | 67 | 1019.3 |
| 20260508223650 | 16 | 268 | 8.0 | 11.3 | 0.00 | 0.00 | 0.00 | 67 | 1019.2 |
| 20260508223150 | 16 | 296 | 8.0 | 14.5 | 0.00 | 0.00 | 0.00 | 67 | 1019.2 |
| 20260508222651 | 16 | 254 | 4.8 | 14.5 | 0.00 | 0.00 | 0.00 | 68 | 1019.3 |
| 20260508222150 | 16 | 261 | 8.0 | 14.5 | 0.00 | 0.00 | 0.00 | 67 | 1019.3 |
| 20260508221650 | 16 | 252 | 6.4 | 14.5 | 0.00 | 0.00 | 0.00 | 67 | 1019.3 |
| 20260508221152 | 16 | 254 | 6.4 | 14.5 | 0.00 | 0.00 | 0.00 | 67 | 1019.2 |
| 20260508220649 | 16 | 273 | 6.4 | 14.5 | 0.00 | 0.00 | 0.00 | 67 | 1019.3 |
| 20260508220151 | 16 | 210 | 6.4 | 14.5 | 0.00 | 0.00 | 0.00 | 68 | 1019.3 |
| 20260508215651 | 16 | 250 | 9.7 | 14.5 | 0.00 | 0.00 | 0.00 | 68 | 1019.3 |
| 20260508215150 | 16 | 236 | 8.0 | 14.5 | 0.00 | 0.00 | 0.00 | 68 | 1019.2 |
| 20260508214650 | 16 | 239 | 8.0 | 14.5 | 0.00 | 0.00 | 0.00 | 68 | 1019.2 |
| 20260508214152 | 16 | 249 | 11.3 | 16.1 | 0.00 | 0.00 | 0.00 | 67 | 1019.2 |
| 20260508213650 | 16 | 238 | 9.7 | 16.1 | 0.00 | 0.00 | 0.00 | 68 | 1019.2 |
| 20260508213150 | 16 | 246 | 6.4 | 16.1 | 0.00 | 0.00 | 0.00 | 67 | 1019.2 |
| 20260508212651 | 16 | 271 | 11.3 | 14.5 | 0.00 | 0.00 | 0.00 | 67 | 1019.2 |
| 20260508212150 | 16 | 242 | 6.4 | 14.5 | 0.00 | 0.00 | 0.00 | 68 | 1019.2 |
| 20260508211650 | 16 | 229 | 8.0 | 17.7 | 0.00 | 0.00 | 0.00 | 67 | 1019.2 |
| 20260508211152 | 16 | 280 | 9.7 | 17.7 | 0.00 | 0.00 | 0.00 | 67 | 1019.2 |
| 20260508210150 | 16 | 266 | 8.0 | 22.5 | 0.00 | 0.00 | 0.00 | 68 | 1019.1 |
| 20260508205651 | 16 | 252 | 9.7 | 22.5 | 0.00 | 0.00 | 0.00 | 66 | 1019.1 |
| 20260508205150 | 16 | 243 | 6.4 | 22.5 | 0.00 | 0.00 | 0.00 | 68 | 1019.0 |
| 20260508204650 | 16 | 243 | 14.5 | 19.3 | 0.00 | 0.00 | 0.00 | 68 | 1019.0 |
| 20260508204152 | 16 | 245 | 9.7 | 19.3 | 0.00 | 0.00 | 0.00 | 69 | 1019.0 |
| 20260508203651 | 16 | 254 | 8.0 | 19.3 | 0.00 | 0.00 | 0.00 | 68 | 1019.0 |
| 20260508203150 | 16 | 235 | 12.9 | 17.7 | 0.00 | 0.00 | 0.00 | 67 | 1019.0 |
| 20260508202652 | 17 | 242 | 12.9 | 20.9 | 0.00 | 0.00 | 0.00 | 67 | 1018.8 |
| 20260508202151 | 17 | 260 | 11.3 | 20.9 | 0.00 | 0.00 | 0.00 | 68 | 1018.9 |
| 20260508201650 | 17 | 245 | 11.3 | 20.9 | 0.00 | 0.00 | 0.00 | 68 | 1018.9 |
| 20260508201152 | 16 | 266 | 12.9 | 19.3 | 0.00 | 0.00 | 0.00 | 69 | 1018.8 |
| 20260508200650 | 16 | 180 | 1.6 | 19.3 | 0.00 | 0.00 | 0.00 | 69 | 1018.7 |
| 20260508200150 | 16 | 201 | 4.8 | 19.3 | 0.00 | 0.00 | 0.00 | 70 | 1018.6 |
| 20260508195651 | 16 | 233 | 8.0 | 16.1 | 0.00 | 0.00 | 0.00 | 70 | 1018.7 |